Total_Precipitation_Accumulation
0.06 0.05 0.05 0.06 0.07 0.07 0.07 0.08 0.09 0.11 0.12 0.15 0.18 0.21 0.21 0.22 0.23 0.24 0.24 0.26 0.29 0.31 0.32 0.34 0.37 0.37 0.39 0.41 0.46 0.52 0.60 0.68 0.74 0.65 0.56 0.54 0.55 0.53 0.52 0.47 0.43 0.43 0.42
0.05 0.05 0.05 0.07 0.08 0.07 0.07 0.09 0.10 0.10 0.11 0.12 0.15 0.16 0.16 0.17 0.18 0.19 0.20 0.21 0.23 0.26 0.29 0.33 0.36 0.37 0.39 0.41 0.45 0.51 0.57 0.62 0.65 0.64 0.55 0.49 0.45 0.41 0.37 0.33 0.29 0.27 0.26
0.06 0.06 0.07 0.08 0.09 0.09 0.10 0.10 0.11 0.11 0.11 0.11 0.11 0.12 0.13 0.13 0.14 0.16 0.18 0.20 0.21 0.23 0.24 0.27 0.29 0.31 0.34 0.36 0.38 0.42 0.45 0.46 0.47 0.45 0.41 0.36 0.32 0.29 0.26 0.21 0.18 0.16 0.14
0.10 0.10 0.11 0.13 0.14 0.14 0.14 0.12 0.12 0.11 0.10 0.09 0.07 0.07 0.07 0.08 0.09 0.12 0.14 0.16 0.18 0.18 0.19 0.21 0.23 0.27 0.31 0.35 0.37 0.38 0.38 0.36 0.34 0.34 0.33 0.28 0.23 0.19 0.16 0.13 0.11 0.09 0.08
0.18 0.17 0.16 0.16 0.17 0.16 0.15 0.12 0.10 0.08 0.06 0.05 0.06 0.06 0.06 0.06 0.07 0.08 0.10 0.13 0.17 0.21 0.25 0.29 0.33 0.38 0.39 0.36 0.32 0.29 0.27 0.27 0.28 0.30 0.26 0.20 0.16 0.12 0.10 0.08 0.08 0.07 0.05
0.26 0.22 0.18 0.18 0.18 0.16 0.14 0.12 0.10 0.08 0.07 0.06 0.07 0.08 0.10 0.13 0.19 0.17 0.14 0.15 0.21 0.26 0.30 0.33 0.36 0.38 0.34 0.31 0.27 0.23 0.23 0.26 0.27 0.25 0.19 0.13 0.08 0.06 0.06 0.06 0.07 0.08 0.05
0.34 0.32 0.26 0.23 0.21 0.17 0.15 0.16 0.17 0.18 0.18 0.18 0.19 0.20 0.22 0.30 0.37 0.32 0.31 0.26 0.27 0.29 0.29 0.28 0.25 0.22 0.20 0.16 0.16 0.17 0.19 0.18 0.15 0.12 0.07 0.04 0.03 0.03 0.06 0.09 0.08 0.09 0.06
0.39 0.38 0.37 0.37 0.38 0.38 0.38 0.39 0.39 0.38 0.38 0.40 0.42 0.43 0.44 0.47 0.45 0.37 0.32 0.28 0.27 0.26 0.23 0.19 0.15 0.11 0.08 0.08 0.11 0.14 0.08 0.04 0.03 0.02 0.02 0.02 0.02 0.03 0.06 0.12 0.11 0.08 0.03
0.57 0.56 0.57 0.59 0.64 0.68 0.70 0.69 0.68 0.69 0.68 0.65 0.60 0.54 0.50 0.48 0.42 0.32 0.26 0.22 0.19 0.16 0.12 0.09 0.06 0.04 0.04 0.08 0.10 0.07 0.02 0.01 0.00 0.01 0.02 0.02 0.02 0.03 0.03 0.05 0.08 0.10 0.06
0.69 0.72 0.75 0.78 0.82 0.79 0.79 0.76 0.68 0.62 0.60 0.58 0.54 0.50 0.43 0.35 0.26 0.19 0.14 0.12 0.09 0.06 0.03 0.02 0.02 0.02 0.05 0.08 0.06 0.04 0.02 0.00 0.01 0.01 0.00 0.00 0.00 0.00 0.00 0.02 0.09 0.24 0.19
0.68 0.68 0.70 0.67 0.64 0.58 0.55 0.53 0.48 0.43 0.37 0.32 0.28 0.23 0.18 0.14 0.10 0.07 0.04 0.03 0.02 0.02 0.01 0.01 0.01 0.03 0.05 0.06 0.05 0.02 0.01 0.04 0.03 0.01 0.00 0.00 0.00 0.00 0.00 0.00 0.03 0.23 0.36
0.49 0.46 0.43 0.37 0.31 0.27 0.24 0.23 0.20 0.18 0.15 0.12 0.09 0.07 0.04 0.03 0.02 0.01 0.01 0.01 0.02 0.02 0.01 0.00 0.01 0.03 0.04 0.03 0.01 0.01 0.03 0.02 0.00 0.00 0.00 0.00 0.00 0.00 0.00 0.00 0.01 0.03 0.13
0.16 0.14 0.12 0.10 0.08 0.06 0.04 0.03 0.03 0.02 0.02 0.02 0.02 0.01 0.01 0.00 0.00 0.00 0.00 0.01 0.02 0.02 0.01 0.02 0.02 0.02 0.01 0.00 0.00 0.00 0.00 0.00 0.00 0.01 0.01 0.00 0.00 0.00 0.00 0.00 0.01 0.01 0.01
0.02 0.02 0.01 0.01 0.01 0.01 0.01 0.00 0.00 0.00 0.00 0.00 0.00 0.00 0.00 0.00 0.00 0.00 0.00 0.01 0.01 0.01 0.01 0.01 0.01 0.00 0.00 0.00 0.00 0.00 0.00 0.00 0.01 0.03 0.02 0.01 0.00 0.00 0.00 0.01 0.03 0.03 0.04
0.02 0.01 0.01 0.01 0.01 0.01 0.01 0.00 0.00 0.00 0.00 0.00 0.00 0.00 0.00 0.00 0.00 0.01 0.02 0.02 0.02 0.02 0.02 0.00 0.00 0.00 0.00 0.00 0.00 0.00 0.00 0.00 0.00 0.01 0.02 0.03 0.01 0.01 0.00 0.01 0.04 0.07 0.09
0.04 0.04 0.03 0.02 0.02 0.01 0.01 0.01 0.01 0.01 0.01 0.01 0.00 0.00 0.00 0.00 0.00 0.01 0.02 0.02 0.02 0.02 0.01 0.00 0.00 0.00 0.00 0.00 0.00 0.00 0.00 0.01 0.01 0.03 0.04 0.05 0.07 0.06 0.04 0.02 0.04 0.08 0.10
0.06 0.06 0.06 0.05 0.04 0.03 0.02 0.02 0.02 0.02 0.01 0.01 0.01 0.00 0.00 0.00 0.01 0.01 0.01 0.01 0.00 0.00 0.00 0.00 0.00 0.00 0.00 0.00 0.01 0.02 0.02 0.01 0.02 0.05 0.07 0.09 0.12 0.09 0.07 0.06 0.06 0.07 0.07
0.06 0.07 0.07 0.05 0.05 0.05 0.04 0.03 0.03 0.02 0.02 0.01 0.01 0.01 0.01 0.01 0.01 0.01 0.01 0.00 0.00 0.00 0.00 0.00 0.00 0.00 0.01 0.01 0.02 0.03 0.03 0.02 0.03 0.04 0.06 0.10 0.14 0.15 0.11 0.09 0.09 0.11 0.13
0.05 0.05 0.05 0.05 0.05 0.05 0.04 0.04 0.03 0.02 0.02 0.02 0.02 0.02 0.02 0.02 0.02 0.01 0.01 0.00 0.00 0.00 0.00 0.00 0.00 0.01 0.02 0.03 0.03 0.04 0.04 0.05 0.05 0.08 0.09 0.11 0.16 0.20 0.15 0.10 0.11 0.10 0.12
0.05 0.06 0.06 0.05 0.04 0.04 0.04 0.04 0.03 0.03 0.02 0.02 0.02 0.01 0.02 0.02 0.02 0.02 0.01 0.01 0.00 0.00 0.00 0.00 0.00 0.01 0.03 0.04 0.05 0.05 0.05 0.04 0.06 0.08 0.10 0.13 0.15 0.21 0.22 0.16 0.14 0.15 0.14
0.05 0.07 0.09 0.07 0.04 0.04 0.04 0.04 0.04 0.03 0.03 0.02 0.02 0.02 0.03 0.02 0.01 0.01 0.01 0.01 0.01 0.01 0.01 0.01 0.01 0.02 0.04 0.05 0.05 0.05 0.05 0.05 0.08 0.12 0.14 0.14 0.17 0.18 0.16 0.16 0.16 0.20 0.24
0.05 0.05 0.06 0.06 0.05 0.06 0.06 0.05 0.05 0.05 0.04 0.04 0.03 0.04 0.05 0.04 0.02 0.01 0.01 0.01 0.01 0.01 0.01 0.02 0.03 0.03 0.08 0.12 0.14 0.12 0.08 0.05 0.07 0.13 0.14 0.12 0.14 0.15 0.17 0.23 0.27 0.29 0.26
0.05 0.05 0.06 0.06 0.07 0.08 0.09 0.07 0.06 0.06 0.05 0.05 0.05 0.04 0.05 0.04 0.03 0.02 0.02 0.01 0.01 0.01 0.01 0.03 0.04 0.04 0.06 0.11 0.16 0.24 0.25 0.18 0.15 0.17 0.26 0.28 0.28 0.31 0.35 0.37 0.33 0.27 0.19
0.06 0.06 0.07 0.07 0.08 0.09 0.09 0.08 0.07 0.06 0.06 0.06 0.05 0.05 0.04 0.04 0.03 0.02 0.02 0.02 0.02 0.02 0.02 0.03 0.05 0.06 0.07 0.11 0.14 0.17 0.25 0.31 0.42 0.51 0.60 0.70 0.58 0.42 0.36 0.32 0.25 0.20 0.16
0.07 0.08 0.08 0.08 0.09 0.09 0.09 0.08 0.07 0.07 0.06 0.06 0.05 0.05 0.04 0.04 0.03 0.03 0.02 0.02 0.02 0.02 0.02 0.03 0.06 0.08 0.09 0.11 0.13 0.16 0.17 0.26 0.46 0.65 0.62 0.54 0.42 0.32 0.31 0.30 0.24 0.20 0.17
0.09 0.10 0.10 0.09 0.09 0.08 0.08 0.07 0.07 0.07 0.06 0.06 0.05 0.05 0.05 0.04 0.03 0.03 0.02 0.02 0.02 0.02 0.02 0.03 0.04 0.09 0.11 0.11 0.08 0.10 0.16 0.23 0.24 0.26 0.40 0.49 0.43 0.34 0.31 0.35 0.30 0.26 0.23